Egegik, AK

7:49 AM AKDT on October 17, 2017 (GMT -0800)
Egegik

Weather History for PAII - October, 2012

Change the Weather History Date:

Sunday, October 7, 2012

  Actual Average (PAKN) Record (PAKN)
Temperature  
Mean Temperature 48 °F -  
Max Temperature 53 °F 44 °F 61 °F (2012)
Min Temperature 44 °F 29 °F 13 °F (1984)
Degree Days  
Heating Degree Days 16    
Moisture  
Dew Point 47 °F    
Average Humidity 90    
Maximum Humidity 100    
Minimum Humidity 82    
Precipitation  
Precipitation 0.00 in - - ()
Sea Level Pressure  
Sea Level Pressure 30.08 in    
Wind  
Wind Speed 18 mph (SE)    
Max Wind Speed 28 mph    
Max Gust Speed 32 mph    
Visibility 10 miles    
Events      
Averages and records for this station are not official NWS values.
T = Trace of Precipitation, MM = Missing Value Source: NWS Daily Summary

Daily Weather History Graph

Daily Weather History Graph

Search for Another Location

Airport or City:

Trip Planner

Search our weather history database for the weather conditions in past years. The results will help you decide how hot, cold, wet, or windy it might be!

Date:

Astronomy

Oct. 07, 2012 Rise Set
Actual Time 8:48 AM AKDT 7:44 PM AKDT
Civil Twilight 8:09 AM AKDT 8:23 PM AKDT
Nautical Twilight 7:23 AM AKDT 9:09 PM AKDT
Astronomical Twilight 6:36 AM AKDT 9:56 PM AKDT
Moon No Moon Rise 4:27 PM AKDT (10/7)
Length of Visible Light 12h 14m
Length of Day
10h 55m
Waning Gibbous, 55% of the Moon is Illuminated
Oct 7
Waning Gibbous
Oct 7
Last Quarter
Oct 15
New
Oct 21
First Quarter
Oct 29
Full

Hourly Weather History & Observations

Time (AKDT) Temp. Windchill Dew Point Humidity Pressure Visibility Wind Dir Wind Speed Gust Speed Precip Events Conditions
12:16 AM 44.6 °F 38.8 °F 42.8 °F 93% 30.06 in 3.0 mi ENE 11.5 mph - N/A   Overcast
12:36 AM 44.6 °F 38.8 °F 42.8 °F 93% 30.05 in 3.0 mi ENE 11.5 mph - N/A   Overcast
12:56 AM 44.6 °F 39.2 °F 42.8 °F 93% 30.05 in 7.0 mi ENE 10.4 mph - N/A   Overcast
1:16 AM 46.4 °F 41.5 °F 44.6 °F 93% 30.04 in 10.0 mi East 10.4 mph - N/A   Overcast
1:36 AM 48.2 °F - 46.4 °F 93% 30.04 in 7.0 mi East 12.7 mph - N/A   Overcast
1:56 AM 48.2 °F - 46.4 °F 93% 30.04 in 8.0 mi ESE 12.7 mph - N/A   Mostly Cloudy
2:16 AM 48.2 °F - 46.4 °F 93% 30.03 in 9.0 mi ESE 16.1 mph - N/A   Overcast
2:36 AM 48.2 °F - 46.4 °F 93% 30.03 in 10.0 mi ESE 16.1 mph - N/A   Mostly Cloudy
2:56 AM 48.2 °F - 46.4 °F 93% 30.03 in 10.0 mi ESE 19.6 mph 23.0 mph N/A   Overcast
3:16 AM 48.2 °F - 46.4 °F 93% 30.03 in 10.0 mi SE 19.6 mph 24.2 mph N/A   Overcast
3:36 AM 48.2 °F - 48.2 °F 100% 30.03 in 10.0 mi SE 19.6 mph - N/A   Overcast
3:56 AM 48.2 °F - 46.4 °F 93% 30.03 in 10.0 mi SE 19.6 mph 24.2 mph N/A   Overcast
4:16 AM 48.2 °F - 46.4 °F 93% 30.03 in 10.0 mi SE 19.6 mph 26.5 mph N/A   Overcast
4:36 AM 48.2 °F - 46.4 °F 93% 30.02 in 10.0 mi ESE 21.9 mph 26.5 mph N/A   Overcast
4:56 AM 48.2 °F - 46.4 °F 93% 30.02 in 10.0 mi SE 17.3 mph 26.5 mph N/A   Overcast
5:16 AM 50.0 °F - 48.2 °F 94% 30.02 in 10.0 mi SE 20.7 mph 25.3 mph N/A   Overcast
5:36 AM 50.0 °F - 48.2 °F 94% 30.02 in 10.0 mi ESE 16.1 mph 29.9 mph N/A   Overcast
5:56 AM 48.2 °F - 46.4 °F 93% 30.02 in 10.0 mi ESE 19.6 mph 24.2 mph N/A   Overcast
6:16 AM 48.2 °F - 46.4 °F 93% 30.02 in 10.0 mi SE 25.3 mph 28.8 mph N/A   Overcast
6:36 AM 48.2 °F - 46.4 °F 93% 30.01 in 10.0 mi SE 27.6 mph 32.2 mph N/A   Overcast
6:56 AM 50.0 °F - 48.2 °F 94% 30.03 in 10.0 mi SE 21.9 mph 27.6 mph N/A   Overcast
7:16 AM 50.0 °F - 48.2 °F 94% 30.03 in 10.0 mi ESE 18.4 mph 25.3 mph N/A   Overcast
7:36 AM 50.0 °F - 46.4 °F 87% 30.03 in 10.0 mi ESE 19.6 mph 25.3 mph N/A   Overcast
7:56 AM 50.0 °F - 46.4 °F 87% 30.03 in 10.0 mi SE 20.7 mph 25.3 mph N/A   Overcast
8:16 AM 50.0 °F - 46.4 °F 87% 30.04 in 10.0 mi ESE 17.3 mph 23.0 mph N/A   Overcast
8:36 AM 50.0 °F - 46.4 °F 87% 30.04 in 10.0 mi SE 19.6 mph 27.6 mph N/A   Overcast
8:56 AM 50.0 °F - 46.4 °F 87% 30.05 in 10.0 mi SE 17.3 mph 23.0 mph N/A   Overcast
9:36 AM 51.8 °F - 48.2 °F 88% 30.06 in 10.0 mi SE 21.9 mph 27.6 mph N/A   Mostly Cloudy
9:56 AM 51.8 °F - 48.2 °F 88% 30.07 in 10.0 mi SE 19.6 mph 26.5 mph N/A   Mostly Cloudy
10:16 AM 51.8 °F - 48.2 °F 88% 30.08 in 10.0 mi SE 21.9 mph 26.5 mph N/A   Scattered Clouds
10:36 AM 51.8 °F - 48.2 °F 88% 30.09 in 10.0 mi SE 20.7 mph 26.5 mph N/A   Clear
10:56 AM 51.8 °F - 48.2 °F 88% 30.10 in 10.0 mi SE 17.3 mph 24.2 mph N/A   Partly Cloudy
11:16 AM 51.8 °F - 48.2 °F 88% 30.10 in 10.0 mi SE 19.6 mph 26.5 mph N/A   Partly Cloudy
11:36 AM 51.8 °F - 48.2 °F 88% 30.10 in 10.0 mi SE 20.7 mph 28.8 mph N/A   Partly Cloudy
11:56 AM 51.8 °F - 48.2 °F 88% 30.11 in 10.0 mi SE 18.4 mph 26.5 mph N/A   Partly Cloudy
12:16 PM 51.8 °F - 48.2 °F 88% 30.11 in 10.0 mi SE 20.7 mph 25.3 mph N/A   Clear
12:36 PM 51.8 °F - 48.2 °F 88% 30.12 in 10.0 mi SE 19.6 mph 26.5 mph N/A   Clear
12:56 PM 51.8 °F - 48.2 °F 88% 30.12 in 10.0 mi SE 19.6 mph 25.3 mph N/A   Clear
1:16 PM 53.6 °F - 48.2 °F 82% 30.12 in 10.0 mi SE 23.0 mph 26.5 mph N/A   Clear
1:36 PM 51.8 °F - 48.2 °F 88% 30.12 in 10.0 mi SE 21.9 mph 28.8 mph N/A   Clear
1:56 PM 51.8 °F - 48.2 °F 88% 30.14 in 10.0 mi SE 18.4 mph 26.5 mph N/A   Clear
2:16 PM 53.6 °F - 48.2 °F 82% 30.13 in 10.0 mi SE 19.6 mph 26.5 mph N/A   Clear
2:36 PM 53.6 °F - 48.2 °F 82% 30.13 in 10.0 mi SE 25.3 mph 29.9 mph N/A   Clear
2:56 PM 53.6 °F - 48.2 °F 82% 30.12 in 10.0 mi SE 23.0 mph 29.9 mph N/A   Clear
3:16 PM 53.6 °F - 48.2 °F 82% 30.13 in 10.0 mi SE 19.6 mph 24.2 mph N/A   Clear
3:36 PM 51.8 °F - 48.2 °F 88% 30.12 in 10.0 mi SE 18.4 mph 26.5 mph N/A   Clear
3:56 PM 53.6 °F - 48.2 °F 82% 30.12 in 10.0 mi SE 21.9 mph 28.8 mph N/A   Clear
4:16 PM 51.8 °F - 48.2 °F 88% 30.11 in 10.0 mi SE 25.3 mph - N/A   Clear
4:36 PM 51.8 °F - 48.2 °F 88% 30.10 in 10.0 mi SE 24.2 mph 28.8 mph N/A   Clear
4:56 PM 51.8 °F - 46.4 °F 82% 30.10 in 10.0 mi SE 23.0 mph 29.9 mph N/A   Clear
5:16 PM 50.0 °F - 46.4 °F 87% 30.10 in 10.0 mi SE 19.6 mph 27.6 mph N/A   Clear
5:36 PM 51.8 °F - 46.4 °F 82% 30.10 in 10.0 mi SE 21.9 mph - N/A   Clear
5:56 PM 51.8 °F - 46.4 °F 82% 30.08 in 10.0 mi SE 24.2 mph 31.1 mph N/A   Clear
6:16 PM 51.8 °F - 46.4 °F 82% 30.10 in 10.0 mi SE 15.0 mph - N/A   Clear
6:36 PM 48.2 °F - 46.4 °F 93% 30.10 in 10.0 mi SE 17.3 mph - N/A   Clear
6:56 PM 48.2 °F - 46.4 °F 93% 30.11 in 10.0 mi ESE 18.4 mph - N/A   Clear
7:16 PM 48.2 °F - 46.4 °F 93% 30.11 in 10.0 mi ESE 18.4 mph - N/A   Clear
7:36 PM 48.2 °F - 44.6 °F 87% 30.11 in 10.0 mi SE 19.6 mph - N/A   Clear
7:56 PM 48.2 °F - 44.6 °F 87% 30.12 in 10.0 mi SE 21.9 mph - N/A   Clear
8:16 PM 48.2 °F - 44.6 °F 87% 30.12 in 10.0 mi SE 18.4 mph - N/A   Clear
8:36 PM 46.4 °F 39.8 °F 44.6 °F 93% 30.12 in 10.0 mi SE 16.1 mph - N/A   Clear
8:56 PM 46.4 °F 40.4 °F 44.6 °F 93% 30.13 in 10.0 mi ESE 13.8 mph - N/A   Clear
9:16 PM 46.4 °F 39.2 °F 44.6 °F 93% 30.12 in 10.0 mi ESE 18.4 mph 24.2 mph N/A   Mostly Cloudy
9:36 PM 46.4 °F 38.7 °F 44.6 °F 93% 30.12 in 10.0 mi SE 20.7 mph 25.3 mph N/A   Mostly Cloudy
9:56 PM 46.4 °F 38.5 °F 44.6 °F 93% 30.13 in 10.0 mi SE 21.9 mph 26.5 mph N/A   Mostly Cloudy
10:16 PM 46.4 °F 38.5 °F 44.6 °F 93% 30.13 in 10.0 mi SE 21.9 mph 25.3 mph N/A   Partly Cloudy
10:36 PM 46.4 °F 38.3 °F 44.6 °F 93% 30.13 in 10.0 mi SE 23.0 mph 28.8 mph N/A   Clear
10:56 PM 46.4 °F 38.7 °F 44.6 °F 93% 30.14 in 10.0 mi SE 20.7 mph - N/A   Clear
11:16 PM 46.4 °F 38.3 °F 44.6 °F 93% 30.13 in 10.0 mi SE 23.0 mph 28.8 mph N/A   Clear
11:36 PM 46.4 °F 38.3 °F 44.6 °F 93% 30.14 in 10.0 mi SE 23.0 mph 31.1 mph N/A   Clear
11:56 PM 46.4 °F 38.5 °F 44.6 °F 93% 30.14 in 10.0 mi SE 21.9 mph 29.9 mph N/A   Scattered Clouds